Starlink 5032

operational
NORAD ID: 53895 Int'l Des: 2022-119 Owner: SPXS Country: US Constellation: starlink
LEOCIRCULAR

关于 Starlink 5032

正在加载描述...

实时位置

正在加载3D地球...

即将过境

高度历史

Altitude vs Time

uPlot chart will show altitude changes over time

两行轨道根数

1 53895U 22119K 25351.27292889 .00000013 00000-0 18918-4 0 9993
2 53895 53.2186 334.0193 0001356 92.7478 267.3670 15.08841876179244
Epoch: Dec 17, 2025 • Age: 8 hours

当前状态

高度 555.3 km
速度 7.58 km/s
星下点 -43.68°S, 12.68°W
发射日期 Sep 24, 2022
运行时间 3.2 years
类型 internet

技术详情

分类 Payload
质量 305.00 kg
干质量 290.00 kg
总质量 305.00 kg
长度 0.20 m
直径 2.80 m
跨度 9.00 m
形状 Box + pan
制造商 SPXS
平台类型 Starlink
阶段状态 In Orbit
所有者/国家 SPXS/US

大型星座

Loading constellations...